Weather History for KGCN - August, 2013

Change the Weather History Date:

Thursday, August 1, 2013

  Actual Average Record
Temperature  
Mean Temperature 68 °F -  
Max Temperature 82 °F 81 °F 92 °F (1977)
Min Temperature 55 °F 49 °F 44 °F (1976)
Cooling Degree Days 4    
Growing Degree Days 18 (Base 50)    
Moisture  
Dew Point 51 °F    
Average Humidity 56    
Maximum Humidity 83    
Minimum Humidity 30    
Precipitation  
Precipitation 0.04 in - - ()
Sea Level Pressure  
Sea Level Pressure 29.97 in    
Wind  
Wind Speed 5 mph (SSW)    
Max Wind Speed 21 mph    
Max Gust Speed 25 mph    
Visibility 10 miles    
Events Rain    
Averages and records for this station are not official NWS values.
T = Trace of Precipitation, MM = Missing Value Source: NWS Daily Summary

Daily Weather History Graph

Daily Weather History Graph

Search for Another Location

Airport or City:

Trip Planner

Search our weather history database for the weather conditions in past years. The results will help you decide how hot, cold, wet, or windy it might be!

Date:

Astronomy

Aug. 01, 2013 Rise Set
Actual Time 5:36 AM MST 7:33 PM MST
Civil Twilight 5:08 AM MST 8:01 PM MST
Nautical Twilight 4:33 AM MST 8:35 PM MST
Astronomical Twilight 3:57 AM MST 9:11 PM MST
Moon 1:16 AM MST (8/1) 3:43 PM MST (8/1)
Length of Visible Light 14h 53m
Length of Day
13h 56m
Waning Crescent, 22% of the Moon is Illuminated
Aug 1
Waning Crescent
Aug 6
New
Aug 14
First Quarter
Aug 20
Full
Aug 28
Last Quarter

Hourly Weather History & Observations

Time (MST) Temp. Dew Point Humidity Pressure Visibility Wind Dir Wind Speed Gust Speed Precip Events Conditions
12:54 AM 60.1 °F 50.0 °F 69% 30.00 in 10.0 mi ENE 3.5 mph - N/A   Scattered Clouds
1:54 AM 57.9 °F 50.0 °F 75% 30.00 in 10.0 mi Calm Calm - N/A   Scattered Clouds
2:54 AM 57.9 °F 50.0 °F 75% 29.99 in 10.0 mi Calm Calm - N/A   Scattered Clouds
3:54 AM 57.9 °F 50.0 °F 75% 29.99 in 10.0 mi Calm Calm - N/A   Mostly Cloudy
4:54 AM 55.0 °F 50.0 °F 83% 30.00 in 10.0 mi Calm Calm - N/A   Partly Cloudy
5:54 AM 57.0 °F 51.1 °F 81% 30.01 in 10.0 mi Calm Calm - N/A   Overcast
6:54 AM 61.0 °F 52.0 °F 72% 30.01 in 10.0 mi Calm Calm - N/A   Clear
7:54 AM 71.1 °F 51.1 °F 49% 30.00 in 10.0 mi Calm Calm - N/A   Clear
8:54 AM 75.0 °F 48.9 °F 40% 29.99 in 10.0 mi SW 10.4 mph - N/A   Partly Cloudy
9:54 AM 79.0 °F 48.0 °F 34% 29.98 in 10.0 mi SSW 10.4 mph - N/A   Partly Cloudy
10:54 AM 80.1 °F 50.0 °F 35% 29.99 in 10.0 mi WSW 12.7 mph 20.7 mph N/A   Partly Cloudy
11:54 AM 82.0 °F 48.0 °F 30% 29.97 in 10.0 mi SW 16.1 mph 25.3 mph N/A   Scattered Clouds
12:54 PM 82.0 °F 48.0 °F 30% 29.95 in 10.0 mi SW 10.4 mph 21.9 mph N/A   Partly Cloudy
1:54 PM 78.1 °F 50.0 °F 37% 29.96 in 10.0 mi SSW 20.7 mph 25.3 mph N/A   Scattered Clouds
2:54 PM 73.0 °F 53.1 °F 49% 29.98 in 10.0 mi South 10.4 mph 19.6 mph 0.00 in Rain Light Rain
3:54 PM 73.9 °F 55.0 °F 52% 29.94 in 10.0 mi Variable 3.5 mph - 0.04 in   Mostly Cloudy
4:54 PM 75.9 °F 54.0 °F 46% 29.93 in 10.0 mi SW 4.6 mph - N/A   Mostly Cloudy
5:54 PM 78.1 °F 50.0 °F 37% 29.89 in 10.0 mi SW 13.8 mph 23.0 mph 0.00 in   Mostly Cloudy
9:54 PM 66.9 °F 55.0 °F 66% 29.92 in 10.0 mi SE 5.8 mph - N/A   Overcast
10:54 PM 66.0 °F 55.0 °F 68% 29.91 in 10.0 mi South 5.8 mph - N/A   Partly Cloudy
11:54 PM 64.0 °F 55.0 °F 73% 29.91 in 10.0 mi Calm Calm - N/A   Clear